NI4CE-10 Weather Reports


time (UTC)temp
F
wind
direction
speed
knots
gust
knots
rain 1hr
in
rain 24hr
in
rain mn
in
humidity
%
barometer
mb
20260510013616 76 303 0.0 0.0 0.00 0.00 0.00 100 1016.8
20260510013521 76 303 0.0 0.0 0.00 0.00 0.00 100 1016.9
20260510013021 76 303 0.0 0.0 0.00 0.00 0.00 100 1016.8
20260510012603 77 303 0.0 0.0 0.00 0.00 0.00 100 1016.8
20260510012521 76 303 0.0 0.0 0.00 0.00 0.00 100 1016.8
20260510012021 77 303 0.0 0.0 0.00 0.00 0.00 100 1016.8
20260510011831 77 303 0.0 0.0 0.00 0.00 0.00 100 1016.8
20260510011521 77 303 0.0 0.0 0.00 0.00 0.00 100 1016.8
20260510011319 78 303 0.0 0.0 0.00 0.00 0.00 100 1016.7
20260510011147 77 303 0.0 0.0 0.00 0.00 0.00 100 1016.7
20260510011021 77 303 0.0 0.0 0.00 0.00 0.00 100 1016.7
20260510010521 78 303 0.0 0.0 0.00 0.00 0.00 100 1016.7
20260510010153 80 303 0.0 0.0 0.00 0.00 0.00 100 1016.4
20260510010021 78 303 0.0 0.0 0.00 0.00 0.00 100 1016.6
20260510005619 80 303 0.0 0.9 0.00 0.00 0.00 100 1016.3
20260510005521 79 303 0.0 0.0 0.00 0.00 0.00 100 1016.5
20260510005500 80 315 0.0 3.5 0.00 0.00 0.00 100 1016.1
20260510005325 80 315 0.0 3.5 0.00 0.00 0.00 100 1016.1
20260510005021 80 303 0.0 0.0 0.00 0.00 0.00 100 1016.4
20260510004813 80 272 0.0 3.5 0.00 0.00 0.00 100 1016.0
20260510004521 80 303 0.0 0.9 0.00 0.00 0.00 100 1016.3
20260510004103 80 272 0.0 3.5 0.00 0.00 0.00 100 1016.0
20260510004021 80 315 0.0 3.5 0.00 0.00 0.00 100 1016.1
20260510003521 80 272 0.0 3.5 0.00 0.00 0.00 100 1016.0
20260510003445 81 246 2.6 3.5 0.00 0.00 0.00 100 1015.9
20260510003021 81 257 2.6 4.3 0.00 0.00 0.00 100 1015.9
20260510002521 81 246 2.6 3.5 0.00 0.00 0.00 100 1015.9
20260510002021 81 226 1.7 5.2 0.00 0.00 0.00 100 1015.8
20260510001521 82 254 2.6 4.3 0.00 0.00 0.00 100 1015.9
20260510001021 82 275 1.7 4.3 0.00 0.00 0.00 100 1015.9
20260510000521 82 277 1.7 3.5 0.00 0.00 0.00 100 1015.8
20260510000021 82 279 0.9 4.3 0.00 0.00 0.00 100 1015.8
20260509235932 83 271 1.7 3.5 0.00 0.00 0.00 100 1015.8
20260509235521 83 271 1.7 3.5 0.00 0.00 0.00 100 1015.8
20260509235021 83 268 1.7 4.3 0.00 0.00 0.00 100 1015.7
20260509234746 83 278 3.5 4.3 0.00 0.00 0.00 100 1015.6
20260509234521 83 277 1.7 5.2 0.00 0.00 0.00 100 1015.7
20260509234414 83 226 2.6 5.2 0.00 0.00 0.00 100 1015.5
20260509234021 83 278 3.5 4.3 0.00 0.00 0.00 100 1015.6
20260509233706 83 226 2.6 5.2 0.00 0.00 0.00 100 1015.5
20260509233521 83 226 2.6 5.2 0.00 0.00 0.00 100 1015.5
20260509233128 84 253 0.9 7.0 0.00 0.00 0.00 100 1015.5
20260509233021 84 253 0.9 7.0 0.00 0.00 0.00 100 1015.5
20260509232521 84 272 4.3 9.6 0.00 0.00 0.00 100 1015.5
20260509232021 84 237 0.9 7.0 0.00 0.00 0.00 100 1015.5
20260509231522 85 268 4.3 8.7 0.00 0.00 0.00 100 1015.4
20260509231514 85 279 2.6 8.7 0.00 0.00 0.00 100 1015.3
20260509231021 85 279 2.6 8.7 0.00 0.00 0.00 100 1015.3
20260509230521 85 240 5.2 7.0 0.00 0.00 0.00 100 1015.2
20260509230420 86 271 7.0 9.6 0.00 0.00 0.00 100 1015.1
20260509230210 86 271 7.0 9.6 0.00 0.00 0.00 100 1015.1
20260509230021 86 271 7.0 9.6 0.00 0.00 0.00 100 1015.1
20260509225521 86 262 7.8 8.7 0.00 0.00 0.00 100 1015.1
20260509225430 86 289 1.7 9.6 0.00 0.00 0.00 100 1015.0
20260509225021 86 289 1.7 9.6 0.00 0.00 0.00 100 1015.0
20260509224604 87 244 8.7 11.3 0.00 0.00 0.00 100 1015.0
20260509224521 87 244 8.7 11.3 0.00 0.00 0.00 100 1015.0
20260509224408 88 248 8.7 10.4 0.00 0.00 0.00 100 1015.0
20260509224149 87 187 0.9 8.7 0.00 0.00 0.00 100 1015.0
20260509224021 87 187 0.9 8.7 0.00 0.00 0.00 100 1015.0
20260509223522 87 223 8.7 11.3 0.00 0.00 0.00 100 1014.9
20260509223022 87 236 8.7 10.4 0.00 0.00 0.00 100 1015.0
20260509222622 88 248 8.7 10.4 0.00 0.00 0.00 100 1015.0
20260509222522 88 248 8.7 10.4 0.00 0.00 0.00 100 1015.0
20260509222149 88 244 1.7 9.6 0.00 0.00 0.00 100 1014.9
20260509222022 88 244 1.7 9.6 0.00 0.00 0.00 100 1014.9
20260509221634 88 281 7.8 9.6 0.00 0.00 0.00 100 1014.9
20260509221522 88 281 7.8 9.6 0.00 0.00 0.00 100 1014.9
20260509221150 89 240 8.7 9.6 0.00 0.00 0.00 100 1014.9
20260509221022 89 240 8.7 9.6 0.00 0.00 0.00 100 1014.9
20260509220522 88 251 5.2 11.3 0.00 0.00 0.00 100 1014.9
20260509220022 88 253 4.3 11.3 0.00 0.00 0.00 100 1014.8
20260509215522 89 254 4.3 12.2 0.00 0.00 0.00 100 1014.7
20260509215022 89 212 0.0 11.3 0.00 0.00 0.00 100 1014.7
20260509214522 90 215 5.2 9.6 0.00 0.00 0.00 100 1014.6
20260509214122 90 257 7.0 10.4 0.00 0.00 0.00 100 1014.6
20260509214022 90 257 7.0 10.4 0.00 0.00 0.00 100 1014.6
20260509213740 90 234 7.0 13.0 0.00 0.00 0.00 100 1014.6
20260509213703 90 234 7.0 13.0 0.00 0.00 0.00 100 1014.6
20260509213522 90 234 7.0 13.0 0.00 0.00 0.00 100 1014.6
20260509213118 91 244 11.3 13.0 0.00 0.00 0.00 100 1014.6
20260509213050 92 225 9.6 12.2 0.00 0.00 0.00 100 1014.5
20260509213022 91 244 11.3 13.0 0.00 0.00 0.00 100 1014.6
20260509212652 91 261 8.7 14.8 0.00 0.00 0.00 100 1014.6
20260509212522 91 261 8.7 14.8 0.00 0.00 0.00 100 1014.6
20260509212022 90 233 5.2 11.3 0.00 0.00 0.00 100 1014.5
20260509211639 90 267 9.6 13.9 0.00 0.00 0.00 100 1014.5
20260509211522 90 267 9.6 13.9 0.00 0.00 0.00 100 1014.5
20260509211022 91 202 7.8 14.8 0.00 0.00 0.00 100 1014.5
20260509210522 92 225 9.6 12.2 0.00 0.00 0.00 100 1014.5
20260509210236 92 267 7.8 13.0 0.00 0.00 0.00 100 1014.6
20260509210022 91 232 4.3 9.6 0.00 0.00 0.00 100 1014.5
20260509205652 92 271 8.7 13.9 0.00 0.00 0.00 100 1014.5
20260509205522 92 271 8.7 13.9 0.00 0.00 0.00 100 1014.5
20260509205022 92 270 5.2 12.2 0.00 0.00 0.00 100 1014.6
20260509204627 93 243 9.6 14.8 0.00 0.00 0.00 100 1014.6
20260509204522 93 243 9.6 14.8 0.00 0.00 0.00 100 1014.6
20260509204121 92 267 7.8 13.0 0.00 0.00 0.00 100 1014.6
20260509204022 92 267 7.8 13.0 0.00 0.00 0.00 100 1014.6
20260509203849 91 246 10.4 14.8 0.00 0.00 0.00 100 1014.7
20260509203647 91 246 10.4 14.8 0.00 0.00 0.00 100 1014.7
20260509203522 91 246 10.4 14.8 0.00 0.00 0.00 100 1014.7
20260509203137 93 205 9.6 12.2 0.00 0.00 0.00 100 1014.7
20260509203102 93 244 3.5 14.8 0.00 0.00 0.00 100 1014.6
20260509203022 93 205 9.6 12.2 0.00 0.00 0.00 100 1014.7
20260509202630 93 244 3.5 14.8 0.00 0.00 0.00 100 1014.6
20260509202523 93 244 3.5 14.8 0.00 0.00 0.00 100 1014.6
20260509202141 93 201 7.8 13.9 0.00 0.00 0.00 100 1014.7
20260509202022 93 201 7.8 13.9 0.00 0.00 0.00 100 1014.7
20260509201639 93 253 8.7 15.6 0.00 0.00 0.00 100 1014.7
20260509201522 93 253 8.7 15.6 0.00 0.00 0.00 100 1014.7
20260509201022 92 232 11.3 13.9 0.00 0.00 0.00 100 1014.8
20260509200522 93 251 9.6 14.8 0.00 0.00 0.00 100 1014.8
20260509200116 94 261 6.1 13.9 0.00 0.00 0.00 100 1014.7
20260509200022 94 261 6.1 13.9 0.00 0.00 0.00 100 1014.7
20260509195522 94 271 7.0 13.9 0.00 0.00 0.00 100 1014.9
20260509195236 94 251 7.0 15.6 0.00 0.00 0.00 100 1014.8
20260509195022 94 251 7.0 15.6 0.00 0.00 0.00 100 1014.8
20260509194522 94 279 5.2 15.6 0.00 0.00 0.00 100 1014.9
20260509194208 92 250 11.3 13.0 0.00 0.00 0.00 100 1015.1
20260509194022 92 250 11.3 13.0 0.00 0.00 0.00 100 1015.1
20260509193522 93 237 8.7 14.8 0.00 0.00 0.00 100 1015.1
20260509193249 93 248 10.4 14.8 0.00 0.00 0.00 100 1015.1
20260509193022 93 248 10.4 14.8 0.00 0.00 0.00 100 1015.1
20260509192654 93 255 7.8 13.0 0.00 0.00 0.00 100 1015.1
20260509192613 94 201 10.4 14.8 0.00 0.00 0.00 100 1015.1
20260509192522 93 255 7.8 13.0 0.00 0.00 0.00 100 1015.1
20260509192248 94 201 10.4 14.8 0.00 0.00 0.00 100 1015.1
20260509192022 94 201 10.4 14.8 0.00 0.00 0.00 100 1015.1
20260509191646 95 236 8.7 14.8 0.00 0.00 0.00 100 1015.2
20260509191522 95 236 8.7 14.8 0.00 0.00 0.00 100 1015.2
20260509191250 95 225 4.3 12.2 0.00 0.00 0.00 100 1015.3
20260509191022 95 225 4.3 12.2 0.00 0.00 0.00 100 1015.3
20260509190522 95 230 6.1 14.8 0.00 0.00 0.00 100 1015.4
20260509190324 94 246 6.1 16.5 0.00 0.00 0.00 100 1015.5
20260509190022 93 265 3.5 16.5 0.00 0.00 0.00 100 1015.6
20260509185749 93 319 4.3 15.6 0.00 0.00 0.00 100 1015.6
20260509185522 93 319 4.3 15.6 0.00 0.00 0.00 100 1015.6
20260509185251 94 225 5.2 11.3 0.00 0.00 0.00 100 1015.6
20260509185022 94 225 5.2 11.3 0.00 0.00 0.00 100 1015.6
20260509184657 94 246 6.1 16.5 0.00 0.00 0.00 100 1015.5
20260509184522 94 246 6.1 16.5 0.00 0.00 0.00 100 1015.5
20260509184239 94 153 6.1 15.6 0.00 0.00 0.00 100 1015.6
20260509184236 94 234 12.2 13.0 0.00 0.00 0.00 100 1015.5
20260509184234 95 247 7.8 12.2 0.00 0.00 0.00 100 1015.5
20260509184022 94 234 12.2 13.0 0.00 0.00 0.00 100 1015.5
20260509183522 94 274 7.0 16.5 0.00 0.00 0.00 100 1015.5
20260509183148 94 217 3.5 13.9 0.00 0.00 0.00 100 1015.6
20260509183022 94 217 3.5 13.9 0.00 0.00 0.00 100 1015.6
20260509182754 94 153 6.1 15.6 0.00 0.00 0.00 100 1015.6
20260509182522 94 153 6.1 15.6 0.00 0.00 0.00 100 1015.6
20260509182150 95 247 7.8 12.2 0.00 0.00 0.00 100 1015.5
20260509182022 95 247 7.8 12.2 0.00 0.00 0.00 100 1015.5
20260509181935 95 258 8.7 16.5 0.00 0.00 0.00 100 1015.6
20260509181631 95 258 8.7 16.5 0.00 0.00 0.00 100 1015.6
20260509181522 95 258 8.7 16.5 0.00 0.00 0.00 100 1015.6
20260509181244 93 195 6.1 13.9 0.00 0.00 0.00 100 1015.6
20260509181022 93 195 6.1 13.9 0.00 0.00 0.00 100 1015.6
20260509180643 94 234 7.0 12.2 0.00 0.00 0.00 100 1015.6
20260509180628 95 237 10.4 15.6 0.00 0.00 0.00 100 1015.5
20260509180548 96 257 7.0 13.0 0.00 0.00 0.00 100 1015.6
20260509180522 94 234 7.0 12.2 0.00 0.00 0.00 100 1015.6
20260509180022 95 237 10.4 15.6 0.00 0.00 0.00 100 1015.5
20260509175522 96 257 7.0 13.0 0.00 0.00 0.00 100 1015.6
20260509175149 95 253 7.8 13.9 0.00 0.00 0.00 100 1015.7
20260509175144 94 199 6.1 13.0 0.00 0.00 0.00 100 1015.7
20260509175022 95 253 7.8 13.9 0.00 0.00 0.00 100 1015.7
20260509174639 94 199 6.1 13.0 0.00 0.00 0.00 100 1015.7
20260509174523 94 199 6.1 13.0 0.00 0.00 0.00 100 1015.7
20260509174154 94 244 7.0 12.2 0.00 0.00 0.00 100 1015.8
20260509174148 93 232 7.0 12.2 0.00 0.00 0.00 100 1015.8
20260509174023 93 232 7.0 12.2 0.00 0.00 0.00 100 1015.8
20260509173523 94 213 8.7 12.2 0.00 0.00 0.00 100 1015.8
20260509173023 94 262 7.0 11.3 0.00 0.00 0.00 100 1015.8
20260509172737 94 244 7.0 12.2 0.00 0.00 0.00 100 1015.8
20260509172705 94 244 7.0 12.2 0.00 0.00 0.00 100 1015.8
20260509172523 94 244 7.0 12.2 0.00 0.00 0.00 100 1015.8
20260509172235 94 243 7.8 14.8 0.00 0.00 0.00 100 1015.7
20260509172023 94 243 7.8 14.8 0.00 0.00 0.00 100 1015.7
20260509171931 93 205 2.6 7.8 0.00 0.00 0.00 100 1015.8
20260509171630 94 281 3.5 11.3 0.00 0.00 0.00 100 1015.8
20260509171523 94 281 3.5 11.3 0.00 0.00 0.00 100 1015.8
20260509171236 93 205 2.6 7.8 0.00 0.00 0.00 100 1015.8
20260509171157 93 205 2.6 7.8 0.00 0.00 0.00 100 1015.8
20260509171023 93 205 2.6 7.8 0.00 0.00 0.00 100 1015.8
20260509170732 92 226 7.0 9.6 0.00 0.00 0.00 100 1016.0
20260509170656 92 226 7.0 9.6 0.00 0.00 0.00 100 1016.0
20260509170652 94 217 7.8 10.4 0.00 0.00 0.00 100 1015.9
20260509170523 92 226 7.0 9.6 0.00 0.00 0.00 100 1016.0
20260509170023 94 217 7.8 10.4 0.00 0.00 0.00 100 1015.9
20260509165523 94 277 5.2 11.3 0.00 0.00 0.00 100 1016.0
20260509165234 93 255 8.7 13.0 0.00 0.00 0.00 100 1016.1
20260509165023 93 255 8.7 13.0 0.00 0.00 0.00 100 1016.1
20260509164523 93 241 13.0 14.8 0.00 0.00 0.00 100 1016.2
20260509164256 92 246 4.3 12.2 0.00 0.00 0.00 100 1016.3
20260509164023 92 246 4.3 12.2 0.00 0.00 0.00 100 1016.3
20260509163523 91 237 6.1 10.4 0.00 0.00 0.00 100 1016.4
20260509163244 92 237 5.2 11.3 0.00 0.00 0.00 100 1016.3
20260509163238 92 206 7.0 13.9 0.00 0.00 0.00 100 1016.4
20260509163023 92 206 7.0 13.9 0.00 0.00 0.00 100 1016.4
20260509162650 92 237 5.2 11.3 0.00 0.00 0.00 100 1016.3
20260509162523 92 237 5.2 11.3 0.00 0.00 0.00 100 1016.3
20260509162144 91 184 4.3 13.9 0.00 0.00 0.00 100 1016.4
20260509162108 91 216 3.5 10.4 0.00 0.00 0.00 100 1016.5
20260509162023 91 184 4.3 13.9 0.00 0.00 0.00 100 1016.4
20260509161523 91 216 3.5 10.4 0.00 0.00 0.00 100 1016.5
20260509161203 92 246 7.8 9.6 0.00 0.00 0.00 100 1016.7
20260509161023 92 194 1.7 7.8 0.00 0.00 0.00 100 1016.6
20260509160523 92 246 7.8 9.6 0.00 0.00 0.00 100 1016.7
20260509160319 91 267 2.6 9.6 0.00 0.00 0.00 100 1016.7
20260509160023 91 206 4.3 10.4 0.00 0.00 0.00 100 1016.8
20260509155724 91 267 2.6 9.6 0.00 0.00 0.00 100 1016.7
20260509155523 91 267 2.6 9.6 0.00 0.00 0.00 100 1016.7
20260509155023 91 237 3.5 7.8 0.00 0.00 0.00 100 1016.8
20260509154735 89 206 7.0 7.8 0.00 0.00 0.00 100 1016.8
20260509154523 89 206 7.0 7.8 0.00 0.00 0.00 100 1016.8
20260509154235 88 149 3.5 7.8 0.00 0.00 0.00 100 1016.8
20260509154023 88 149 3.5 7.8 0.00 0.00 0.00 100 1016.8
20260509153726 89 158 2.6 9.6 0.00 0.00 0.00 100 1016.8
20260509153523 89 158 2.6 9.6 0.00 0.00 0.00 100 1016.8
20260509153023 90 234 2.6 7.0 0.00 0.00 0.00 100 1016.9
20260509152756 88 206 6.1 7.8 0.00 0.00 0.00 100 1016.9
20260509152523 88 206 6.1 7.8 0.00 0.00 0.00 100 1016.9
20260509152023 89 151 1.7 7.0 0.00 0.00 0.00 100 1017.1
20260509151651 87 181 4.3 6.1 0.00 0.00 0.00 100 1017.1
20260509151523 87 181 4.3 6.1 0.00 0.00 0.00 100 1017.1
20260509151149 87 203 3.5 7.0 0.00 0.00 0.00 100 1017.1
20260509151023 87 203 3.5 7.0 0.00 0.00 0.00 100 1017.1
20260509150813 88 237 3.5 6.1 0.00 0.00 0.00 100 1017.1
20260509150733 88 237 3.5 6.1 0.00 0.00 0.00 100 1017.1
20260509150523 88 237 3.5 6.1 0.00 0.00 0.00 100 1017.1
20260509150334 86 181 3.5 7.0 0.00 0.00 0.00 100 1017.3
20260509150330 87 137 0.9 7.0 0.00 0.00 0.00 100 1017.2
20260509150228 86 181 3.5 7.0 0.00 0.00 0.00 100 1017.3
20260509150023 86 181 3.5 7.0 0.00 0.00 0.00 100 1017.3
20260509145723 87 137 0.9 7.0 0.00 0.00 0.00 100 1017.2
20260509145523 87 137 0.9 7.0 0.00 0.00 0.00 100 1017.2
20260509145023 87 227 2.6 5.2 0.00 0.00 0.00 100 1017.3
20260509144736 86 184 3.5 5.2 0.00 0.00 0.00 100 1017.2
20260509144654 86 184 3.5 5.2 0.00 0.00 0.00 100 1017.2
20260509144523 86 184 3.5 5.2 0.00 0.00 0.00 100 1017.2
20260509144023 87 196 2.6 6.1 0.00 0.00 0.00 100 1017.1
20260509143900 87 230 2.6 6.1 0.00 0.00 0.00 100 1017.1
20260509143523 86 177 3.5 6.1 0.00 0.00 0.00 100 1017.0
20260509143023 87 230 2.6 6.1 0.00 0.00 0.00 100 1017.1
20260509142523 86 178 3.5 5.2 0.00 0.00 0.00 100 1017.0
20260509142248 85 181 2.6 5.2 0.00 0.00 0.00 100 1016.9
20260509142023 85 181 2.6 5.2 0.00 0.00 0.00 100 1016.9
20260509141732 86 163 0.9 5.2 0.00 0.00 0.00 100 1016.9
20260509141523 86 163 0.9 5.2 0.00 0.00 0.00 100 1016.9
20260509141111 84 170 2.6 6.1 0.00 0.00 0.00 100 1016.8
20260509141023 85 146 5.2 7.0 0.00 0.00 0.00 100 1016.8
20260509140523 84 170 2.6 6.1 0.00 0.00 0.00 100 1016.8
20260509140212 85 133 3.5 4.3 0.00 0.00 0.00 100 1016.6
20260509140023 85 144 5.2 5.2 0.00 0.00 0.00 100 1016.7
20260509135740 85 133 3.5 4.3 0.00 0.00 0.00 100 1016.6
20260509135523 85 133 3.5 4.3 0.00 0.00 0.00 100 1016.6
20260509135441 84 59 1.7 5.2 0.00 0.00 0.00 100 1016.7
20260509135023 84 59 1.7 5.2 0.00 0.00 0.00 100 1016.7
20260509134716 84 118 4.3 5.2 0.00 0.00 0.00 100 1016.8
20260509134524 84 118 4.3 5.2 0.00 0.00 0.00 100 1016.8
20260509134024 81 171 2.6 5.2 0.00 0.00 0.00 100 1016.7
20260509133722 81 56 1.7 5.2 0.00 0.00 0.00 100 1016.6
20260509133524 81 149 2.6 5.2 0.00 0.00 0.00 100 1016.6
20260509133024 81 56 1.7 5.2 0.00 0.00 0.00 100 1016.6
20260509132524 81 165 2.6 4.3 0.00 0.00 0.00 100 1016.6
20260509132500 82 126 1.7 5.2 0.00 0.00 0.00 100 1016.6
20260509132024 82 126 1.7 5.2 0.00 0.00 0.00 100 1016.6
20260509131524 84 92 3.5 5.2 0.00 0.00 0.00 100 1016.6
20260509131024 82 81 1.7 3.5 0.00 0.00 0.00 100 1016.6
20260509130524 81 21 0.0 0.0 0.00 0.00 0.00 100 1016.5
20260509130024 80 21 0.0 0.0 0.00 0.00 0.00 100 1016.5
20260509125617 79 21 0.0 0.0 0.00 0.00 0.00 100 1016.5
20260509125605 79 21 0.0 0.0 0.00 0.00 0.00 100 1016.5
20260509125524 79 21 0.0 0.0 0.00 0.00 0.00 100 1016.5
20260509125024 79 21 0.0 0.0 0.00 0.00 0.00 100 1016.5
20260509124747 79 21 0.0 0.0 0.00 0.00 0.00 100 1016.5
20260509124524 79 21 0.0 0.0 0.00 0.00 0.00 100 1016.5
20260509124024 79 21 0.0 0.0 0.00 0.00 0.00 100 1016.5
20260509123524 80 21 0.0 0.0 0.00 0.00 0.00 100 1016.5
20260509123259 81 21 0.0 0.0 0.00 0.00 0.00 100 1016.4
20260509123024 81 21 0.0 0.0 0.00 0.00 0.00 100 1016.4
20260509122809 81 21 0.0 0.0 0.00 0.00 0.00 100 1016.4
20260509122524 81 21 0.0 0.0 0.00 0.00 0.00 100 1016.4
20260509122024 80 21 0.0 0.0 0.00 0.00 0.00 100 1016.4
20260509121524 80 21 0.0 0.0 0.00 0.00 0.00 100 1016.3
20260509121024 80 21 0.0 0.0 0.00 0.00 0.00 100 1016.2
20260509120524 79 21 0.0 0.9 0.00 0.00 0.00 100 1016.0
20260509120024 78 71 0.0 0.0 0.00 0.00 0.00 100 1015.9
20260509115524 78 71 0.0 0.0 0.00 0.00 0.00 100 1016.0
20260509115024 76 71 0.0 0.0 0.00 0.00 0.00 100 1015.8
20260509114648 70 71 0.0 0.0 0.00 0.00 0.00 100 1015.8
20260509114524 75 71 0.0 0.0 0.00 0.00 0.00 100 1015.8
20260509114041 72 71 0.0 0.0 0.00 0.00 0.00 100 1015.8
20260509114024 74 71 0.0 0.0 0.00 0.00 0.00 100 1015.8
20260509113524 72 71 0.0 0.0 0.00 0.00 0.00 100 1015.8
20260509113024 72 71 0.0 0.0 0.00 0.00 0.00 100 1015.8
20260509112524 70 71 0.0 0.0 0.00 0.00 0.00 100 1015.8
20260509112501 68 71 0.0 0.0 0.00 0.00 0.00 100 1015.6
20260509112024 69 71 0.0 0.0 0.00 0.00 0.00 100 1015.7
20260509111813 68 71 0.0 0.0 0.00 0.00 0.00 100 1015.7
20260509111524 68 71 0.0 0.0 0.00 0.00 0.00 100 1015.7
20260509111024 68 71 0.0 0.0 0.00 0.00 0.00 100 1015.6
20260509110524 68 71 0.0 0.0 0.00 0.00 0.00 100 1015.6
20260509110145 67 71 0.0 0.0 0.00 0.00 0.00 100 1015.6
20260509110024 67 71 0.0 0.0 0.00 0.00 0.00 100 1015.6
20260509105524 67 71 0.0 0.0 0.00 0.00 0.00 100 1015.5
20260509105024 67 71 0.0 0.0 0.00 0.00 0.00 100 1015.6
20260509104524 67 71 0.0 0.0 0.00 0.00 0.00 100 1015.5
20260509104458 67 71 0.0 0.0 0.00 0.00 0.00 100 1015.5
20260509104024 67 71 0.0 0.0 0.00 0.00 0.00 100 1015.5
20260509103524 67 71 0.0 0.0 0.00 0.00 0.00 100 1015.4
20260509103225 67 71 0.0 0.0 0.00 0.00 0.00 100 1015.4
20260509103024 67 71 0.0 0.0 0.00 0.00 0.00 100 1015.4
20260509102727 68 71 0.0 0.0 0.00 0.00 0.00 100 1015.6
20260509102524 68 71 0.0 0.0 0.00 0.00 0.00 100 1015.5
20260509102024 68 71 0.0 0.0 0.00 0.00 0.00 100 1015.6
20260509101524 68 71 0.0 0.0 0.00 0.00 0.00 100 1015.6
20260509101024 68 71 0.0 0.0 0.00 0.00 0.00 100 1015.5
20260509100836 68 71 0.0 0.0 0.00 0.00 0.00 100 1015.6
20260509100524 68 71 0.0 0.0 0.00 0.00 0.00 100 1015.6
20260509100024 68 71 0.0 0.0 0.00 0.00 0.00 100 1015.6
20260509100019 68 71 0.0 0.0 0.00 0.00 0.00 100 1015.5
20260509095812 67 71 0.0 0.0 0.00 0.00 0.00 100 1015.6
20260509095524 67 71 0.0 0.0 0.00 0.00 0.00 100 1015.6
20260509095025 68 71 0.0 0.0 0.00 0.00 0.00 100 1015.5
20260509094525 68 71 0.0 0.0 0.00 0.00 0.00 100 1015.5
20260509094502 68 71 0.0 0.0 0.00 0.00 0.00 100 1015.5
20260509094025 68 71 0.0 0.0 0.00 0.00 0.00 100 1015.5
20260509093525 68 71 0.0 0.0 0.00 0.00 0.00 100 1015.5
20260509093025 68 71 0.0 0.0 0.00 0.00 0.00 100 1015.5
20260509092947 68 71 0.0 0.0 0.00 0.00 0.00 100 1015.5
20260509092854 68 71 0.0 0.0 0.00 0.00 0.00 100 1015.5
20260509092525 68 71 0.0 0.0 0.00 0.00 0.00 100 1015.5
20260509092025 68 71 0.0 0.0 0.00 0.00 0.00 100 1015.6
20260509091731 68 71 0.0 0.0 0.00 0.00 0.00 100 1015.7
20260509091525 68 71 0.0 0.0 0.00 0.00 0.00 100 1015.7
20260509091025 68 71 0.0 0.0 0.00 0.00 0.00 100 1015.7
20260509090525 68 71 0.0 0.0 0.00 0.00 0.00 100 1015.6
20260509090025 68 71 0.0 0.0 0.00 0.00 0.00 100 1015.6
20260509085525 68 71 0.0 0.0 0.00 0.00 0.00 100 1015.5
20260509085025 68 71 0.0 0.0 0.00 0.00 0.00 100 1015.7
20260509084525 68 71 0.0 0.0 0.00 0.00 0.00 100 1015.6
20260509084025 69 71 0.0 0.0 0.00 0.00 0.00 100 1015.6
20260509083525 69 71 0.0 0.0 0.00 0.00 0.00 100 1015.7
20260509083025 69 71 0.0 0.0 0.00 0.00 0.00 100 1015.6
20260509082525 69 71 0.0 0.0 0.00 0.00 0.00 100 1015.8
20260509082025 69 71 0.0 0.0 0.00 0.00 0.00 100 1015.8
20260509081525 69 71 0.0 0.0 0.00 0.00 0.00 100 1015.9
20260509081025 69 71 0.0 0.0 0.00 0.00 0.00 100 1015.9
20260509080721 69 71 0.0 0.0 0.00 0.00 0.00 100 1015.9
20260509080525 69 71 0.0 0.0 0.00 0.00 0.00 100 1015.9
20260509080025 69 71 0.0 0.0 0.00 0.00 0.00 100 1015.9
20260509075525 70 71 0.0 1.7 0.00 0.00 0.00 100 1016.1
20260509075025 69 19 0.0 0.0 0.00 0.00 0.00 100 1016.1
20260509074525 69 19 0.0 0.0 0.00 0.00 0.00 100 1016.1
20260509074025 70 19 0.0 0.0 0.00 0.00 0.00 100 1016.1
20260509073808 70 19 0.0 0.0 0.00 0.00 0.00 100 1016.2
20260509073525 70 19 0.0 0.0 0.00 0.00 0.00 100 1016.2
20260509073025 70 19 0.0 0.0 0.00 0.00 0.00 100 1016.2
20260509072525 71 19 0.0 0.0 0.00 0.00 0.00 100 1016.1
20260509072203 72 9 0.0 0.9 0.00 0.00 0.00 100 1016.4
20260509072025 72 19 0.0 0.0 0.00 0.00 0.00 100 1016.1
20260509071525 72 19 0.0 0.9 0.00 0.00 0.00 100 1016.3
20260509071025 72 9 0.0 0.0 0.00 0.00 0.00 100 1016.3
20260509070525 72 9 0.0 0.9 0.00 0.00 0.00 100 1016.4
20260509070025 72 9 0.9 3.5 0.00 0.00 0.00 100 1016.4
20260509065525 72 355 0.0 0.0 0.00 0.00 0.00 100 1016.5
20260509065353 72 355 0.0 0.0 0.00 0.00 0.00 100 1016.6
20260509065317 72 355 0.0 0.0 0.00 0.00 0.00 100 1016.6
20260509065028 71 355 0.0 2.6 0.00 0.00 0.00 100 1016.6
20260509065025 72 355 0.0 0.0 0.00 0.00 0.00 100 1016.6
20260509064745 71 355 0.0 2.6 0.00 0.00 0.00 100 1016.6
20260509064525 71 355 0.0 2.6 0.00 0.00 0.00 100 1016.6
20260509064255 71 45 0.0 0.0 0.00 0.00 0.00 100 1016.8
20260509064025 70 45 0.0 0.0 0.00 0.00 0.00 100 1016.6
20260509063815 70 45 0.0 0.0 0.00 0.00 0.00 100 1016.7
20260509063525 70 45 0.0 0.0 0.00 0.00 0.00 100 1016.7
20260509063218 70 45 0.0 0.0 0.00 0.00 0.00 100 1016.8
20260509063025 70 45 0.0 0.0 0.00 0.00 0.00 100 1016.8
20260509062525 71 45 0.0 0.0 0.00 0.00 0.00 100 1016.8
20260509062207 71 45 0.0 0.0 0.00 0.00 0.00 100 1017.0
20260509062025 71 45 0.0 0.0 0.00 0.00 0.00 100 1016.8
20260509061525 71 45 0.0 0.0 0.00 0.00 0.00 100 1017.0
20260509061025 71 45 0.0 0.0 0.00 0.00 0.00 100 1017.0
20260509060827 72 45 0.0 0.0 0.00 0.00 0.00 100 1017.0
20260509060525 72 45 0.0 0.0 0.00 0.00 0.00 100 1017.0
20260509060025 72 45 0.0 0.0 0.00 0.00 0.00 100 1017.0
20260509055716 72 45 0.0 0.0 0.00 0.00 0.00 100 1017.2
20260509055608 72 45 0.0 0.0 0.00 0.00 0.00 100 1017.2
20260509055530 73 45 0.0 0.0 0.00 0.00 0.00 100 1017.1
20260509055525 72 45 0.0 0.0 0.00 0.00 0.00 100 1017.2
20260509055331 73 45 0.0 0.0 0.00 0.00 0.00 100 1017.4
20260509055026 73 45 0.0 0.0 0.00 0.00 0.00 100 1017.1
20260509054803 73 45 0.0 0.0 0.00 0.00 0.00 100 1017.2
20260509054526 73 45 0.0 0.0 0.00 0.00 0.00 100 1017.2
20260509054026 73 45 0.0 0.0 0.00 0.00 0.00 100 1017.3
20260509053526 73 45 0.0 0.0 0.00 0.00 0.00 100 1017.4
20260509053026 74 45 0.0 0.0 0.00 0.00 0.00 100 1017.4
20260509052526 74 45 0.0 0.0 0.00 0.00 0.00 100 1017.4
20260509052158 74 45 0.0 0.0 0.00 0.00 0.00 100 1017.4
20260509052026 74 45 0.0 0.0 0.00 0.00 0.00 100 1017.4
20260509051526 74 45 0.0 0.0 0.00 0.00 0.00 100 1017.5
20260509051026 75 45 0.0 3.5 0.00 0.00 0.00 100 1017.5
20260509050526 74 53 0.9 1.7 0.00 0.00 0.00 100 1017.6
20260509050130 74 18 0.0 0.0 0.00 0.00 0.00 100 1017.6
20260509050026 74 18 0.0 0.0 0.00 0.00 0.00 100 1017.6
20260509045526 75 18 0.0 0.0 0.00 0.00 0.00 100 1017.6
20260509045130 75 18 0.0 0.0 0.00 0.00 0.00 100 1017.6
20260509045026 75 18 0.0 0.0 0.00 0.00 0.00 100 1017.6
20260509044652 75 18 0.0 0.9 0.00 0.00 0.00 100 1017.7
20260509044526 75 18 0.0 0.9 0.00 0.00 0.00 100 1017.7
20260509044026 75 21 0.0 2.6 0.00 0.00 0.00 100 1017.8
20260509043526 76 61 0.0 0.0 0.00 0.00 0.00 100 1017.9
20260509043026 76 61 0.0 3.5 0.00 0.00 0.00 100 1018.0
20260509042526 77 47 0.0 3.5 0.00 0.00 0.00 100 1018.0
20260509042215 76 68 2.6 4.3 0.00 0.00 0.00 100 1017.9
20260509042026 76 68 2.6 4.3 0.00 0.00 0.00 100 1017.9
20260509041526 77 88 2.6 3.5 0.00 0.00 0.00 100 1017.9
20260509041351 77 2 1.7 7.0 0.00 0.00 0.00 100 1017.7
20260509041026 77 18 0.0 3.5 0.00 0.00 0.00 100 1017.8
20260509040526 77 33 1.7 4.3 0.00 0.00 0.00 100 1017.7
20260509040026 77 2 1.7 7.0 0.00 0.00 0.00 100 1017.7
20260509035724 77 16 1.7 6.1 0.00 0.00 0.00 100 1017.6
20260509035526 77 16 1.7 6.1 0.00 0.00 0.00 100 1017.6
20260509035026 77 19 2.6 7.8 0.00 0.00 0.00 100 1017.7
20260509034526 77 358 6.1 7.0 0.00 0.00 0.00 100 1017.7
20260509034026 77 351 3.5 7.0 0.00 0.00 0.00 100 1017.7
20260509033802 78 340 3.5 7.8 0.00 0.00 0.00 100 1017.6
20260509033613 78 351 5.2 7.8 0.00 0.00 0.00 100 1017.6
20260509033526 78 340 3.5 7.8 0.00 0.00 0.00 100 1017.6
20260509033026 78 351 5.2 7.8 0.00 0.00 0.00 100 1017.6
20260509032526 78 29 0.9 8.7 0.00 0.00 0.00 100 1017.6
20260509032401 78 1 4.3 8.7 0.00 0.00 0.00 100 1017.5
20260509032026 78 1 4.3 8.7 0.00 0.00 0.00 100 1017.5
20260509031741 78 334 4.3 9.6 0.00 0.00 0.00 100 1017.6
20260509031526 78 334 4.3 9.6 0.00 0.00 0.00 100 1017.6
20260509031519 78 347 9.6 9.6 0.00 0.00 0.00 100 1017.6
20260509031026 78 347 9.6 9.6 0.00 0.00 0.00 100 1017.6
20260509030526 78 338 4.3 7.0 0.00 0.00 0.00 100 1017.6
20260509030026 78 7 2.6 7.0 0.00 0.00 0.00 100 1017.5
20260509025658 78 324 0.9 7.0 0.00 0.00 0.00 100 1017.3
20260509025526 77 25 0.9 7.8 0.00 0.00 0.00 100 1017.5
20260509025026 77 329 4.3 6.1 0.00 0.00 0.00 100 1017.5
20260509024526 78 16 0.0 6.1 0.00 0.00 0.00 100 1017.5
20260509024501 78 1 2.6 7.0 0.00 0.00 0.00 100 1017.5
20260509024026 78 1 2.6 7.0 0.00 0.00 0.00 100 1017.5
20260509023526 78 18 3.5 7.0 0.00 0.00 0.00 100 1017.4
20260509023026 78 324 0.9 7.0 0.00 0.00 0.00 100 1017.3
20260509022526 78 4 3.5 7.8 0.00 0.00 0.00 100 1017.2
20260509022026 78 338 3.5 7.0 0.00 0.00 0.00 100 1017.1
20260509021526 78 316 3.5 7.0 0.00 0.00 0.00 100 1017.0
20260509021026 78 330 2.6 5.2 0.00 0.00 0.00 100 1017.0
20260509020714 78 336 3.5 8.7 0.00 0.00 0.00 100 1017.0
20260509020526 78 336 3.5 8.7 0.00 0.00 0.00 100 1017.0
20260509020026 78 317 1.7 7.0 0.00 0.00 0.00 100 1016.9
20260509015709 78 326 6.1 7.0 0.00 0.00 0.00 100 1016.9
20260509015527 78 326 6.1 7.0 0.00 0.00 0.00 100 1016.9
20260509015027 78 2 0.0 7.8 0.00 0.00 0.00 100 1016.8
20260509014527 78 344 0.9 6.1 0.00 0.00 0.00 100 1016.7
20260509014153 78 351 1.7 6.1 0.00 0.00 0.00 100 1016.7
20260509014027 78 351 1.7 6.1 0.00 0.00 0.00 100 1016.7